Regional Weather Roundup
Issued by NWS Grand Forks, ND

Home | Current Version | Previous Version | Graphics & Text | Print | Product List | Glossary On
Versions: 1 2 3 4 5 6 7 8 9 10 11 12 13 14 15 16 17 18 19 20 21 22 23 24 25 26 27 28 29 30 31 32 33 34 35 36 37 38 39 40 41 42 43 44 45 46 47 48 49 50
000
ASUS43 KFGF 250810
RWRFGF
PRAIRIE TO PINES  WEATHER ROUNDUP
NATIONAL WEATHER SERVICE EASTERN NORTH DAKOTA/GRAND FORKS ND
300 AM CDT THU MAY 25 2017

 **SATELLITE DATA USED TO AUGMENT SKY COVER AT AUTOMATED STATIONS**
 *****  WEATHER ACROSS EASTERN NORTH DAKOTA  *****

CITY           SKY/WX    TMP DP  RH WIND       PRES   REMARKS
GRAND FORKS    FAIR      50  43  77 SE10      29.60S
GRAND FRKS AFB FAIR      49  42  76 SE10      29.60R
DEVILS LAKE    FAIR      51  43  74 SE21      29.54S
FARGO          FAIR      53  42  66 SE13      29.61R
WAHPETON ARPT  FAIR      48  41  76 SE12      29.61S
$$

 ***** WEATHER ACROSS CENTRAL AND WESTERN NORTH DAKOTA  *****

CITY           SKY/WX    TMP DP  RH WIND       PRES   REMARKS
BISMARCK       LGT RAIN  54  48  80 SE15      29.41F
MINOT          LGT RAIN  55  50  83 SE10      29.40F
JAMESTOWN      FAIR      50  42  74 SE15      29.53F
MINOT AFB      CLOUDY    54  53  95 S7        29.39F
GARRISON         N/A     51  48  89 SE7       29.41F
WILLISTON      FAIR      49  47  93 SW8       29.37S
DICKINSON      CLOUDY    50  47  89 NE9       29.37F
HETTINGER      FAIR      51  48  89 N8        29.39F
$$

 *****  OTHER AIRPORT OBSERVATIONS IN OUR AREA  *****

CITY           SKY/WX    TMP DP  RH WIND       PRES   REMARKS
WALHALLA       NOT AVBL
GRAFTON AIRPOR FAIR      48  43  81 SE9       29.62S
VALLEY CITY AR FAIR      48  46  93 SE12      29.58F
CANDO          NOT AVBL
CAVALIER APRT  FAIR      54  43  66 SE9G15    29.58S
GWINNER        SUNNY     48  45  87 MISG      29.56F
SHEYENNE NWR     N/A     49  46  88 SE9       29.95S
ROLLA          FAIR      52  45  76 S17G24    29.51S
 ***** THE ABOVE OBSERVATIONS ARE NON NWS ARE NOT QUALITY
       CONTROLLED AND MAY MIS-REPORT RAIN FOR SNOW...
$$

  *****  WEATHER ACROSS NORTHERN MINNESOTA  *****

CITY           SKY/WX    TMP DP  RH WIND       PRES   REMARKS
FLAG ISLAND    FAIR      54  45  71 S18       29.67
WARROAD        FAIR      48  43  81 SE8       29.67
ROSEAU         FAIR      48  43  81 SE10      29.65
HALLOCK        FAIR      52  43  71 SE13      29.61
THF RVR FALLS  FAIR      47  41  80 SE10      29.64F
BAUDETTE       FAIR      44  39  82 SE8       29.69F
WASKISH        FAIR      46  41  81 SE3       29.70
CROOKSTON      FAIR      48  43  81 SE9       29.64
STEPHEN NDAWN    N/A     48  43  81 SE8         N/A
GREENBUSH NDAW   N/A     48  43  81 SE10        N/A
$$
  *****  WEATHER ACROSS CENTRAL AND WEST MINNESOTA  *****

CITY           SKY/WX    TMP DP  RH WIND       PRES   REMARKS
FOSSTON        FAIR      43  37  81 E5        29.66
BEMIDJI        FAIR      46  42  85 E7        29.68
PARK RAPIDS    FAIR      51  42  71 SE7       29.66F
ELBOW LAKE     FAIR      50  42  74 E12       29.63
WADENA         FAIR      46  43  87 SE3       29.66
DETROIT LAKES  FAIR      46  43  87 SE7       29.65
MOORHEAD       FAIR      52  41  66 SE9       29.62
FERGUS FALLS   FAIR      52  41  66 SE12      29.62
MORRIS MN      FAIR      48  45  87 SE12      29.63
STAPLES        MOCLDY    50  43  76 E5        29.67
$$
  *****  WEATHER ELSEWHERE ACROSS MINNESOTA  *****

CITY           SKY/WX    TMP DP  RH WIND       PRES   REMARKS
DULUTH         FAIR      43  41  93 E8        29.72F
INTRNTL FALLS  FAIR      41  36  82 E6        29.72S
ELY            FAIR      34  34 100 CALM      29.75
CLOQUET        FAIR      43  39  87 E3        29.73
WHEATON        FAIR      48  45  87 SE13      29.62
BRAINERD       CLOUDY    50  44  80 VRB5      29.69F
HIBBING        FAIR      34  34 100 CALM      29.72F
ALEXANDRIA     FAIR      46  40  79 SE6       29.66F
SAINT CLOUD    FAIR      49  48  97 E3        29.69F
MINNEAPOLIS    FAIR      52  46  80 E7        29.69F
$$

  *****  WEATHER ACROSS SOUTH DAKOTA  *****

CITY           SKY/WX    TMP DP  RH WIND       PRES   REMARKS
SIOUX FALLS    FAIR      51  45  79 SE13      29.62S
BROOKINGS      FAIR      48  42  80 SE13      29.62S
WATERTOWN      FAIR      47  42  83 SE9       29.59S
HURON          FAIR      51  45  79 SE17G25   29.50F
SISSETON         N/A     43  43 100 S6        29.60R
ABERDEEN       FAIR      51  41  68 SE21G32   29.48F
MITCHELL       FAIR      51  44  77 SE15      29.54F
PIERRE         FAIR      57  42  57 SE23G32   29.34F
MOBRIDGE       FAIR      54  45  71 E12       29.40R
RAPID CITY     FAIR      57  45  64 NW22G29   29.40R
$$

  *****  SOME WEATHER IN NEARBY STATES *****

CITY           SKY/WX    TMP DP  RH WIND       PRES   REMARKS
GLASGOW MT     FAIR      46  22  38 CALM      29.35S
GREAT FALLS MT LGT RAIN  42  37  82 W23G30    29.57S
CHEYENNE WY    FAIR      55  36  48 NW3       29.60F
SCOTTSBLUFF NE FAIR      59  42  53 W5        29.45F
OMAHA NE       FAIR      52  45  77 SE3       29.66F
DES MOINES IA  FAIR      49  46  90 CALM      29.68S
DAVENPORT IA   FAIR      51  49  92 NW8       29.65R
CHICAGO IL     FAIR      55  50  83 N12       29.53F
EAU CLAIRE WI  CLOUDY    53  50  89 CALM      29.70S
LA CROSSE WI   FAIR      49  47  93 CALM      29.69S
$$

  *****  SOME NATIONAL WEATHER *****

CITY           SKY/WX    TMP DP  RH WIND       PRES   REMARKS
LA GUARDIA NY  DRIZZLE   57  52  83 E13       29.75F
RALEIGH NC     LGT RAIN  63  62  97 W8        29.52R
ATLANTA GA     LGT RAIN  58  55  90 W10       29.63R
NEW ORLEANS LA FAIR      59  54  83 SW5       29.80S
OKLAHOMA CITY  FAIR      54  47  77 SE9       29.69F
ALBUQUERQUE NM FAIR      72  20  14 W16       29.79F
SALT LAKE CITY MOCLDY    63  42  46 N21       29.62R
LOS ANGELES CA CLOUDY    59  53  80 VRB3      29.86S
BOISE ID       FAIR      50  30  46 NW12      29.72R
SEATTLE WA     FAIR      53  43  68 CALM      29.92S
$$

*** WEATHER ACROSS MANITOBA...SASKATCHEWAN AND ONTARIO ***
                ***ONTARIO***

CITY           SKY/WX    TMP DP  RH WIND       PRES   REMARKS
GERALDTON      CLEAR     37  34  87 N2        29.81R
THUNDER BAY    CLEAR     37  36  93 W5        29.78S
SIOUX LOOKOUT  CLEAR     39  34  81 SE3       29.75F
TORONTO        LGT RAIN  55  55 100 E9        29.60F FOG
BIG TROUT LK   CLEAR     45  32  61 SE6       29.75S
PICKLE LAKE    NOT AVBL
DRYDEN         CLEAR     50  37  62 S8        29.74S
KENORA         CLEAR     48  39  71 SE7       29.69F
$$
                *** MANITOBA***

CITY           SKY/WX    TMP DP  RH WIND       PRES   REMARKS
BRANDON        LGT RAIN  54  45  71 S18G28    29.47S
DAUPHIN        CLOUDY    57  45  62 S13       29.43F
ISLAND LAKE    CLEAR     54  34  47 SE6       29.65R
PILOT MOUND      N/A     52  41  66 S23G30      N/A
THE PAS        CLOUDY    59  43  55 SE13G23   29.37S
THOMPSON       MOCLDY    52  37  58 CALM      29.54S
WINNIPEG       PTCLDY    52  41  66 S14       29.59S
LYNN LAKE      CLOUDY    50  39  66 NE5       29.46F HAZE
CHURCHILL      MOCLDY    45  43  93 NE5       29.58S
GILLAM         PTCLDY    48  36  61 SW3       29.59R
$$
                ***SASKATCHEWAN***

CITY           SKY/WX    TMP DP  RH WIND       PRES   REMARKS
ESTEVAN        PTCLDY    50  48  93 S13       29.33R
KINDERSLEY     MOCLDY    43  41  93 NW6       29.19R
LLOYDMINSTER   LGT RAIN  48  48 100 N18G29    29.27R
PRINCE ALBERT  MOCLDY    48  45  87 SE6       29.21F
REGINA         CLEAR     39  30  70 S12       29.24F
YORKTON        LGT RAIN  54  48  82 SE18G31   29.29S
N. BATTLEFORD  CLOUDY    46  46 100 NE9       29.18S
LA RONGE       LGT RAIN  48  45  87 NE13      29.36R
SASKATOON      LGT RAIN  48  46  93 E8        29.19S
SWIFT CURRENT  CLOUDY    43  39  87 SW12G17   29.15S
$$
NOTE: THESE ARE AUTOMATED STATIONS WITH LIMITED QUALITY CONTROL
      "FAIR" INDICATES FEW OR NO CLOUDS BELOW 12,000 FEET WITH NO
      SIGNIFICANT WEATHER AND/OR OBSTRUCTIONS TO VISIBILITY.
      SKY/WX - SKY CONDITION AND SIGNIFICANT WEATHER.
      TMP - AIR TEMPERATURE.    DP   - DEWPOINT TEMPERATURE.
      RH  - RELATIVE HUMIDITY.  PRES - PRESSURE.
      HX  - HEAT INDEX.         WCI  - WIND CHILL INDEX.
$



USA.gov is the U.S. government's official web portal to all federal, state and local government web resources and services.